Location: Les Salelles
(44.4192°N, 4.1044°E)
Time: 16:22:00
(UTC+00:00)

CZ-4 R/B - Pass Details

Date: 20 January 2021
Orbit: 530 x 599 km, 97.7° (Epoch: 26 February)

Event Time Altitude Azimuth Distance (km) Brightness Sun altitude
Rises 17:50:01 0° 151° (SSE) 2,804 4.8 -13.0°
Reaches altitude 10° 17:52:14 10° 145° (SE) 1,899 3.9 -13.4°
Maximum altitude 17:56:10 46° 72° (ENE) 783 1.6 -14.1°
Drops below altitude 10° 18:00:04 10° 359° (N) 1,875 3.9 -14.7°
Sets 18:02:15 0° 354° (N) 2,764 4.8 -15.1°
